DELTA 1 DEB, 10707

Orbit data source: Space-Track

DELTA 1 DEB, 10707 is space debris in LEO originally from a launch on Thu, 29 Jul 1976 UTC launched from the Air Force Western Test Range (AFWTR). Debris objects in space refer to the collection of defunct objects orbiting the Earth. Examples of debris include non-operational satellites, rocket bodies, and fragments generated from explosions, collisions, or faulty payload assembly.

Loading next visibility...
Identifier
10707, 1976-077AC
Orbit
LEO
Country
Flag of USUS
Related business
Manufacturer
Unknown
Mission
Spacecraft
Bus & Motor
Unknown
Mass
Unknown
Launch date (UTC)
1976-07-29 (50 years ago)
Launch vehicle
Unknown
Launch site
Air Force Western Test Range (AFWTR)
Object type
Payload
Rocket body
Debris
Shape & HBR
Unknown shape, 0.1 m
Radar Cross Section
Small (<0.1 m²)

Expand to show TLE details & history
Last TLE update: 7 hours ago

TLE from 7 hours ago
0 DELTA 1 DEB
1 10707U 76077AC  26127.92225946 -.00000261  00000-0 -25260-2 0  9997
2 10707 102.1906 141.1715 0262492  13.8506  59.6211 11.98468262147535
Epoch: 2026-05-07T22:08Z
TLE epoch observation values (Epoch: 2026-05-07T22:08:03.217Z)
Latitude
71.66903°
Longitude
-97.06108°
Altitude
1,597.046 km
Speed
7.122 km/s
True Right ascension
06h 42m 51s
True Declination
71° 34' 37"
Sunlit
Object was in daylight at epoch
Visualization orbit readout
Latitude
Unknown
Longitude
Unknown
Altitude
Unknown
Speed
Unknown
Apparent Right ascension
Unknown
Apparent Declination
Unknown
Sunlit
N/A
Visualization observer readout
Local Sidereal Time
13:19:41
Azimuth
Unknown
Elevation
Unknown
Doppler factor
Unknown
Orbital elements
Apogee altitude
1,897.024 km
Perigee altitude
1,473.703 km
Semi-major axis
8,063.501 km
Eccentricity
0.02625
Inclination
102.1906°
RAAN
141.1715°
Arg. of periapsis
13.8506°
True anomaly
62.25887°
Mean anomaly
59.6211°
Eccentric anomaly
60.93568°
Mean motion
2.99749 °/min
Orbital period
120.1 mins
BSTAR
-0.002526
Loading maneuver chart data...
Computing Atmospheric mass density...
Loading historical data...
Loading historical data...
Loading historical data...
Loading historical data...
Loading historical data...
Loading historical data...
Loading historical data...

Documentation

Showing up to 5 results
|